Location: Sungai Kamana Besar
(2.6333°N, 113.4333°E)
Time: 13:07:52
(UTC+00:00)

H-2A R/B - Visible Passes

Search period start: 26 September 2022 00:00
Search period end: 06 October 2022 00:00
Orbit: 491 x 536 km, 97.3° (Epoch: 01 April)

Date Brightness Start Highest point End Pass type
(mag) Time Alt. Az. Time Alt. Az. Time Alt. Az.
26 Sep 5.3 20:08:11 10° NE 20:09:53 18° ENE 20:09:53 18° ENE visible
26 Sep 4.6 21:44:00 10° WNW 21:44:34 10° WNW 21:44:44 10° W visible
27 Sep 3.9 21:24:27 10° NNW 21:27:08 19° WNW 21:27:11 19° W visible
28 Sep 3.1 21:06:17 10° N 21:09:40 37° WNW 21:09:40 37° WNW visible
29 Sep 2.4 20:48:33 10° N 20:52:09 76° WNW 20:52:09 76° WNW visible
30 Sep 3.4 20:31:09 10° NNE 20:40:23 - S 20:34:41 51° E visible
01 Oct 4.8 20:14:08 10° NE 20:17:14 26° E 20:17:16 26° ESE visible
02 Oct 5.7 19:57:44 10° ENE 19:59:44 14° E 19:59:59 14° ESE visible
02 Oct 4.2 21:31:06 10° NW 21:33:22 16° WNW 21:34:51 13° WSW visible
03 Oct 3.4 21:12:37 10° NNW 21:15:51 29° W 21:19:06 10° SW visible
04 Oct 2.6 20:54:41 10° N 20:58:18 58° WNW 21:01:59 10° SSW visible
05 Oct 2.9 20:37:07 10° NNE 20:40:46 67° E 20:44:29 10° S visible
